owner,sensor,date,latitude,longitude,vertical_datum,mass_concentration_of_oxygen_in_sea_water,qcFlag 
SCCF RECON,ioos:station:SCCF:53:1,2011-10-01T00:00:00Z,26.6493,-81.8810,2.358,5.25,1111122 
SCCF RECON,ioos:station:SCCF:53:1,2011-10-01T01:00:00Z,26.6493,-81.8810,2.31,5.32,1111122 
SCCF RECON,ioos:station:SCCF:53:1,2011-10-01T02:00:00Z,26.6493,-81.8810,2.27,5.14,1111122 
SCCF RECON,ioos:station:SCCF:53:1,2011-10-01T03:00:00Z,26.6493,-81.8810,2.24,5.12,1111122 
SCCF RECON,ioos:station:SCCF:53:1,2011-10-01T04:00:00Z,26.6493,-81.8810,2.21,4.99,1111122 
SCCF RECON,ioos:station:SCCF:53:1,2011-10-01T05:00:00Z,26.6493,-81.8810,2.206,4.94,1111122 
SCCF RECON,ioos:station:SCCF:53:1,2011-10-01T06:00:00Z,26.6493,-81.8810,2.27,4.66,1111122 
SCCF RECON,ioos:station:SCCF:53:1,2011-10-01T07:00:00Z,26.6493,-81.8810,2.35,4.86,1111122 
SCCF RECON,ioos:station:SCCF:53:1,2011-10-01T08:00:00Z,26.6493,-81.8810,2.41,4.96,1111122 
SCCF RECON,ioos:station:SCCF:53:1,2011-10-01T09:00:00Z,26.6493,-81.8810,2.477,4.92,1111122 
SCCF RECON,ioos:station:SCCF:53:1,2011-10-01T10:00:00Z,26.6493,-81.8810,2.52,4.96,1111122 
SCCF RECON,ioos:station:SCCF:53:1,2011-10-01T11:00:00Z,26.6493,-81.8810,2.51,5.3,1111122 
SCCF RECON,ioos:station:SCCF:53:1,2011-10-01T12:00:00Z,26.6493,-81.8810,2.45,5.26,1111122 
SCCF RECON,ioos:station:SCCF:53:1,2011-10-01T13:00:00Z,26.6493,-81.8810,2.39,4.98,1111122 
SCCF RECON,ioos:station:SCCF:53:1,2011-10-01T14:00:00Z,26.6493,-81.8810,2.33,4.99,1111122 
SCCF RECON,ioos:station:SCCF:53:1,2011-10-01T15:00:00Z,26.6493,-81.8810,2.272,4.81,1111122 
SCCF RECON,ioos:station:SCCF:53:1,2011-10-01T16:00:00Z,26.6493,-81.8810,2.21,5.01,1111122 
SCCF RECON,ioos:station:SCCF:53:1,2011-10-01T17:00:00Z,26.6493,-81.8810,2.15,4.96,1111122 
SCCF RECON,ioos:station:SCCF:53:1,2011-10-01T18:00:00Z,26.6493,-81.8810,2.095,4.96,1111122 
SCCF RECON,ioos:station:SCCF:53:1,2011-10-01T19:00:00Z,26.6493,-81.8810,2.085,4.65,1111122 
SCCF RECON,ioos:station:SCCF:53:1,2011-10-01T20:00:00Z,26.6493,-81.8810,2.128,4.55,1111122 
SCCF RECON,ioos:station:SCCF:53:1,2011-10-01T21:00:00Z,26.6493,-81.8810,2.179,4.21,1111122 
SCCF RECON,ioos:station:SCCF:53:1,2011-10-01T22:00:00Z,26.6493,-81.8810,2.225,4.13,1111122 
SCCF RECON,ioos:station:SCCF:53:1,2011-10-01T23:00:00Z,26.6493,-81.8810,2.28,4.18,1111122 
SCCF RECON,ioos:station:SCCF:53:1,2011-10-02T00:00:00Z,26.6493,-81.8810,2.321,4.35,1111122 
SCCF RECON,ioos:station:SCCF:53:1,2011-10-02T01:00:00Z,26.6493,-81.8810,2.348,4.9,1111122 
SCCF RECON,ioos:station:SCCF:53:1,2011-10-02T02:00:00Z,26.6493,-81.8810,2.35,5.5,1111122 
SCCF RECON,ioos:station:SCCF:53:1,2011-10-02T03:00:00Z,26.6493,-81.8810,2.311,5.51,1111122 
SCCF RECON,ioos:station:SCCF:53:1,2011-10-02T04:00:00Z,26.6493,-81.8810,2.269,5.49,1111122 
SCCF RECON,ioos:station:SCCF:53:1,2011-10-02T05:00:00Z,26.6493,-81.8810,2.224,5.42,1111122 
SCCF RECON,ioos:station:SCCF:53:1,2011-10-02T06:00:00Z,26.6493,-81.8810,2.21,5.17,1111122 
SCCF RECON,ioos:station:SCCF:53:1,2011-10-02T07:00:00Z,26.6493,-81.8810,2.25,5.13,1111122 
SCCF RECON,ioos:station:SCCF:53:1,2011-10-02T08:00:00Z,26.6493,-81.8810,2.3,5.38,1111122 
SCCF RECON,ioos:station:SCCF:53:1,2011-10-02T09:00:00Z,26.6493,-81.8810,2.35,5.34,1111122 
SCCF RECON,ioos:station:SCCF:53:1,2011-10-02T10:00:00Z,26.6493,-81.8810,2.405,4.36,1111122 
SCCF RECON,ioos:station:SCCF:53:1,2011-10-02T11:00:00Z,26.6493,-81.8810,2.43,4.87,1111122 
SCCF RECON,ioos:station:SCCF:53:1,2011-10-02T12:00:00Z,26.6493,-81.8810,2.409,4.35,1111122 
SCCF RECON,ioos:station:SCCF:53:1,2011-10-02T13:00:00Z,26.6493,-81.8810,2.35,5.47,1111122 
SCCF RECON,ioos:station:SCCF:53:1,2011-10-02T14:00:00Z,26.6493,-81.8810,2.3,5.48,1111122 
SCCF RECON,ioos:station:SCCF:53:1,2011-10-02T15:00:00Z,26.6493,-81.8810,2.249,5.41,1111122 
SCCF RECON,ioos:station:SCCF:53:1,2011-10-02T16:00:00Z,26.6493,-81.8810,2.194,5.43,1111122 
SCCF RECON,ioos:station:SCCF:53:1,2011-10-02T17:00:00Z,26.6493,-81.8810,2.137,5.54,1111122 
SCCF RECON,ioos:station:SCCF:53:1,2011-10-02T18:00:00Z,26.6493,-81.8810,2.084,5.12,1111122 
SCCF RECON,ioos:station:SCCF:53:1,2011-10-02T19:00:00Z,26.6493,-81.8810,2.042,4.89,1111122 
SCCF RECON,ioos:station:SCCF:53:1,2011-10-02T20:00:00Z,26.6493,-81.8810,2.044,4.91,1111122 
SCCF RECON,ioos:station:SCCF:53:1,2011-10-02T21:00:00Z,26.6493,-81.8810,2.08,4.92,1111122 
SCCF RECON,ioos:station:SCCF:53:1,2011-10-02T22:00:00Z,26.6493,-81.8810,2.12,5.0,1111122 
SCCF RECON,ioos:station:SCCF:53:1,2011-10-02T23:00:00Z,26.6493,-81.8810,2.17,4.91,1111122 
SCCF RECON,ioos:station:SCCF:53:1,2011-10-03T00:00:00Z,26.6493,-81.8810,2.22,5.21,1111122 
SCCF RECON,ioos:station:SCCF:53:1,2011-10-03T01:00:00Z,26.6493,-81.8810,2.27,5.47,1111122 
SCCF RECON,ioos:station:SCCF:53:1,2011-10-03T02:00:00Z,26.6493,-81.8810,2.298,5.6,1111122 
SCCF RECON,ioos:station:SCCF:53:1,2011-10-03T03:00:00Z,26.6493,-81.8810,2.31,5.63,1111122 
SCCF RECON,ioos:station:SCCF:53:1,2011-10-03T04:00:00Z,26.6493,-81.8810,2.288,5.6,1111122 
SCCF RECON,ioos:station:SCCF:53:1,2011-10-03T05:00:00Z,26.6493,-81.8810,2.254,5.81,1111122 
SCCF RECON,ioos:station:SCCF:53:1,2011-10-03T06:00:00Z,26.6493,-81.8810,2.24,5.71,1111122 
SCCF RECON,ioos:station:SCCF:53:1,2011-10-03T07:00:00Z,26.6493,-81.8810,2.246,5.76,1111122 
SCCF RECON,ioos:station:SCCF:53:1,2011-10-03T08:00:00Z,26.6493,-81.8810,2.28,5.73,1111122 
SCCF RECON,ioos:station:SCCF:53:1,2011-10-03T09:00:00Z,26.6493,-81.8810,2.34,5.8,1111122 
SCCF RECON,ioos:station:SCCF:53:1,2011-10-03T10:00:00Z,26.6493,-81.8810,2.39,5.69,1111122 
SCCF RECON,ioos:station:SCCF:53:1,2011-10-03T11:00:00Z,26.6493,-81.8810,2.437,5.37,1111122 
SCCF RECON,ioos:station:SCCF:53:1,2011-10-03T12:00:00Z,26.6493,-81.8810,2.46,5.82,1111122 
SCCF RECON,ioos:station:SCCF:53:1,2011-10-03T13:00:00Z,26.6493,-81.8810,2.43,5.84,1111122 
SCCF RECON,ioos:station:SCCF:53:1,2011-10-03T14:00:00Z,26.6493,-81.8810,2.38,5.81,1111122 
SCCF RECON,ioos:station:SCCF:53:1,2011-10-03T15:00:00Z,26.6493,-81.8810,2.328,5.71,1111122 
SCCF RECON,ioos:station:SCCF:53:1,2011-10-03T16:00:00Z,26.6493,-81.8810,2.27,5.32,1111122 
SCCF RECON,ioos:station:SCCF:53:1,2011-10-03T17:00:00Z,26.6493,-81.8810,2.21,5.3,1111122 
SCCF RECON,ioos:station:SCCF:53:1,2011-10-03T18:00:00Z,26.6493,-81.8810,2.15,5.38,1111122 
SCCF RECON,ioos:station:SCCF:53:1,2011-10-03T19:00:00Z,26.6493,-81.8810,2.097,5.34,1111122 
SCCF RECON,ioos:station:SCCF:53:1,2011-10-03T20:00:00Z,26.6493,-81.8810,2.056,5.45,1111122 
SCCF RECON,ioos:station:SCCF:53:1,2011-10-03T21:00:00Z,26.6493,-81.8810,2.04,5.56,1111122 
SCCF RECON,ioos:station:SCCF:53:1,2011-10-03T22:00:00Z,26.6493,-81.8810,2.068,5.59,1111122 
SCCF RECON,ioos:station:SCCF:53:1,2011-10-03T23:00:00Z,26.6493,-81.8810,2.111,5.54,1111122 
SCCF RECON,ioos:station:SCCF:53:1,2011-10-04T00:00:00Z,26.6493,-81.8810,2.16,5.57,1111122 
SCCF RECON,ioos:station:SCCF:53:1,2011-10-04T01:00:00Z,26.6493,-81.8810,2.21,5.55,1111122 
SCCF RECON,ioos:station:SCCF:53:1,2011-10-04T02:00:00Z,26.6493,-81.8810,2.25,5.64,1111122 
SCCF RECON,ioos:station:SCCF:53:1,2011-10-04T03:00:00Z,26.6493,-81.8810,2.29,5.61,1111122 
SCCF RECON,ioos:station:SCCF:53:1,2011-10-04T04:00:00Z,26.6493,-81.8810,2.31,5.7,1111122 
SCCF RECON,ioos:station:SCCF:53:1,2011-10-04T05:00:00Z,26.6493,-81.8810,2.33,5.56,1111122 
SCCF RECON,ioos:station:SCCF:53:1,2011-10-04T06:00:00Z,26.6493,-81.8810,2.341,5.63,1111122 
SCCF RECON,ioos:station:SCCF:53:1,2011-10-04T07:00:00Z,26.6493,-81.8810,2.34,5.47,1111122 
SCCF RECON,ioos:station:SCCF:53:1,2011-10-04T08:00:00Z,26.6493,-81.8810,2.32,5.35,1111122 
SCCF RECON,ioos:station:SCCF:53:1,2011-10-04T09:00:00Z,26.6493,-81.8810,2.328,5.5,1111122 
SCCF RECON,ioos:station:SCCF:53:1,2011-10-04T10:00:00Z,26.6493,-81.8810,2.369,5.32,1111122 
SCCF RECON,ioos:station:SCCF:53:1,2011-10-04T11:00:00Z,26.6493,-81.8810,2.41,5.31,1111122 
SCCF RECON,ioos:station:SCCF:53:1,2011-10-04T12:00:00Z,26.6493,-81.8810,2.44,5.29,1111122 
SCCF RECON,ioos:station:SCCF:53:1,2011-10-04T13:00:00Z,26.6493,-81.8810,2.46,5.58,1111122 
SCCF RECON,ioos:station:SCCF:53:1,2011-10-04T14:00:00Z,26.6493,-81.8810,2.454,5.45,1111122 
SCCF RECON,ioos:station:SCCF:53:1,2011-10-04T15:00:00Z,26.6493,-81.8810,2.4,5.29,1111122 
SCCF RECON,ioos:station:SCCF:53:1,2011-10-04T16:00:00Z,26.6493,-81.8810,2.341,5.03,1111122 
SCCF RECON,ioos:station:SCCF:53:1,2011-10-04T17:00:00Z,26.6493,-81.8810,2.28,4.99,1111122 
SCCF RECON,ioos:station:SCCF:53:1,2011-10-04T18:00:00Z,26.6493,-81.8810,2.215,5.26,1111122 
SCCF RECON,ioos:station:SCCF:53:1,2011-10-04T19:00:00Z,26.6493,-81.8810,2.157,5.33,1111122 
SCCF RECON,ioos:station:SCCF:53:1,2011-10-04T20:00:00Z,26.6493,-81.8810,2.1,5.12,1111122 
SCCF RECON,ioos:station:SCCF:53:1,2011-10-04T21:00:00Z,26.6493,-81.8810,2.052,4.65,1111122 
SCCF RECON,ioos:station:SCCF:53:1,2011-10-04T22:00:00Z,26.6493,-81.8810,2.03,5.15,1111122 
SCCF RECON,ioos:station:SCCF:53:1,2011-10-04T23:00:00Z,26.6493,-81.8810,2.04,5.6,1111122 
SCCF RECON,ioos:station:SCCF:53:1,2011-10-05T00:00:00Z,26.6493,-81.8810,2.08,5.37,1111122 
SCCF RECON,ioos:station:SCCF:53:1,2011-10-05T01:00:00Z,26.6493,-81.8810,2.14,5.48,1111122 
SCCF RECON,ioos:station:SCCF:53:1,2011-10-05T02:00:00Z,26.6493,-81.8810,2.19,5.09,1111122 
SCCF RECON,ioos:station:SCCF:53:1,2011-10-05T03:00:00Z,26.6493,-81.8810,2.25,5.32,1111122 
SCCF RECON,ioos:station:SCCF:53:1,2011-10-05T04:00:00Z,26.6493,-81.8810,2.29,5.03,1111122 
SCCF RECON,ioos:station:SCCF:53:1,2011-10-05T05:00:00Z,26.6493,-81.8810,2.317,5.18,1111122 
SCCF RECON,ioos:station:SCCF:53:1,2011-10-05T06:00:00Z,26.6493,-81.8810,2.339,5.31,1111122 
SCCF RECON,ioos:station:SCCF:53:1,2011-10-05T07:00:00Z,26.6493,-81.8810,2.33,5.21,1111122 
SCCF RECON,ioos:station:SCCF:53:1,2011-10-05T08:00:00Z,26.6493,-81.8810,2.31,5.15,1111122 
SCCF RECON,ioos:station:SCCF:53:1,2011-10-05T09:00:00Z,26.6493,-81.8810,2.29,5.38,1111122 
SCCF RECON,ioos:station:SCCF:53:1,2011-10-05T10:00:00Z,26.6493,-81.8810,2.288,5.32,1111122 
SCCF RECON,ioos:station:SCCF:53:1,2011-10-05T11:00:00Z,26.6493,-81.8810,2.32,5.26,1111122 
SCCF RECON,ioos:station:SCCF:53:1,2011-10-05T12:00:00Z,26.6493,-81.8810,2.362,5.27,1111122 
SCCF RECON,ioos:station:SCCF:53:1,2011-10-05T13:00:00Z,26.6493,-81.8810,2.42,5.11,1111122 
SCCF RECON,ioos:station:SCCF:53:1,2011-10-05T14:00:00Z,26.6493,-81.8810,2.458,5.21,1111122 
SCCF RECON,ioos:station:SCCF:53:1,2011-10-05T15:00:00Z,26.6493,-81.8810,2.454,5.24,1111122 
SCCF RECON,ioos:station:SCCF:53:1,2011-10-05T16:00:00Z,26.6493,-81.8810,2.401,5.08,1111122 
SCCF RECON,ioos:station:SCCF:53:1,2011-10-05T17:00:00Z,26.6493,-81.8810,2.34,5.11,1111122 
SCCF RECON,ioos:station:SCCF:53:1,2011-10-05T18:00:00Z,26.6493,-81.8810,2.28,5.12,1111122 
SCCF RECON,ioos:station:SCCF:53:1,2011-10-05T19:00:00Z,26.6493,-81.8810,2.219,5.15,1111122 
SCCF RECON,ioos:station:SCCF:53:1,2011-10-05T20:00:00Z,26.6493,-81.8810,2.163,5.07,1111122 
SCCF RECON,ioos:station:SCCF:53:1,2011-10-05T21:00:00Z,26.6493,-81.8810,2.109,5.01,1111122 
SCCF RECON,ioos:station:SCCF:53:1,2011-10-05T22:00:00Z,26.6493,-81.8810,2.064,5.16,1111122 
SCCF RECON,ioos:station:SCCF:53:1,2011-10-05T23:00:00Z,26.6493,-81.8810,2.044,5.3,1111122 
SCCF RECON,ioos:station:SCCF:53:1,2011-10-06T00:00:00Z,26.6493,-81.8810,2.049,5.74,1111122 
SCCF RECON,ioos:station:SCCF:53:1,2011-10-06T01:00:00Z,26.6493,-81.8810,2.087,5.46,1111122 
SCCF RECON,ioos:station:SCCF:53:1,2011-10-06T02:00:00Z,26.6493,-81.8810,2.127,5.79,1111122 
SCCF RECON,ioos:station:SCCF:53:1,2011-10-06T03:00:00Z,26.6493,-81.8810,2.17,5.58,1111122 
SCCF RECON,ioos:station:SCCF:53:1,2011-10-06T04:00:00Z,26.6493,-81.8810,2.22,5.43,1111122 
SCCF RECON,ioos:station:SCCF:53:1,2011-10-06T05:00:00Z,26.6493,-81.8810,2.25,5.04,1111122 
SCCF RECON,ioos:station:SCCF:53:1,2011-10-06T06:00:00Z,26.6493,-81.8810,2.27,5.19,1111122 
SCCF RECON,ioos:station:SCCF:53:1,2011-10-06T07:00:00Z,26.6493,-81.8810,2.255,5.26,1111122 
SCCF RECON,ioos:station:SCCF:53:1,2011-10-06T08:00:00Z,26.6493,-81.8810,2.22,4.75,1111122 
SCCF RECON,ioos:station:SCCF:53:1,2011-10-06T09:00:00Z,26.6493,-81.8810,2.18,4.94,1111122 
SCCF RECON,ioos:station:SCCF:53:1,2011-10-06T10:00:00Z,26.6493,-81.8810,2.17,4.87,1111122 
SCCF RECON,ioos:station:SCCF:53:1,2011-10-06T11:00:00Z,26.6493,-81.8810,2.18,5.13,1111122 
SCCF RECON,ioos:station:SCCF:53:1,2011-10-06T12:00:00Z,26.6493,-81.8810,2.24,5.1,1111122 
SCCF RECON,ioos:station:SCCF:53:1,2011-10-06T13:00:00Z,26.6493,-81.8810,2.309,5.04,1111122 
SCCF RECON,ioos:station:SCCF:53:1,2011-10-06T14:00:00Z,26.6493,-81.8810,2.36,5.27,1111122 
SCCF RECON,ioos:station:SCCF:53:1,2011-10-06T15:00:00Z,26.6493,-81.8810,2.417,5.5,1111122 
SCCF RECON,ioos:station:SCCF:53:1,2011-10-06T16:00:00Z,26.6493,-81.8810,2.437,5.52,1111122 
SCCF RECON,ioos:station:SCCF:53:1,2011-10-06T17:00:00Z,26.6493,-81.8810,2.421,5.47,1111122 
SCCF RECON,ioos:station:SCCF:53:1,2011-10-06T18:00:00Z,26.6493,-81.8810,2.364,5.37,1111122 
SCCF RECON,ioos:station:SCCF:53:1,2011-10-06T19:00:00Z,26.6493,-81.8810,2.31,5.31,1111122 
SCCF RECON,ioos:station:SCCF:53:1,2011-10-06T20:00:00Z,26.6493,-81.8810,2.253,5.29,1111122 
SCCF RECON,ioos:station:SCCF:53:1,2011-10-06T21:00:00Z,26.6493,-81.8810,2.2,5.62,1111122 
SCCF RECON,ioos:station:SCCF:53:1,2011-10-06T22:00:00Z,26.6493,-81.8810,2.15,5.78,1111122 
SCCF RECON,ioos:station:SCCF:53:1,2011-10-06T23:00:00Z,26.6493,-81.8810,2.111,5.93,1111122 
SCCF RECON,ioos:station:SCCF:53:1,2011-10-07T00:00:00Z,26.6493,-81.8810,2.1,6.0,1111122 
SCCF RECON,ioos:station:SCCF:53:1,2011-10-07T01:00:00Z,26.6493,-81.8810,2.13,5.93,1111122 
SCCF RECON,ioos:station:SCCF:53:1,2011-10-07T02:00:00Z,26.6493,-81.8810,2.165,6.04,1111122 
SCCF RECON,ioos:station:SCCF:53:1,2011-10-07T03:00:00Z,26.6493,-81.8810,2.206,6.15,1111122 
SCCF RECON,ioos:station:SCCF:53:1,2011-10-07T04:00:00Z,26.6493,-81.8810,2.254,6.04,1111122 
SCCF RECON,ioos:station:SCCF:53:1,2011-10-07T05:00:00Z,26.6493,-81.8810,2.292,6.12,1111122 
SCCF RECON,ioos:station:SCCF:53:1,2011-10-07T06:00:00Z,26.6493,-81.8810,2.312,5.6,1111122 
SCCF RECON,ioos:station:SCCF:53:1,2011-10-07T07:00:00Z,26.6493,-81.8810,2.31,5.35,1111122 
SCCF RECON,ioos:station:SCCF:53:1,2011-10-07T08:00:00Z,26.6493,-81.8810,2.26,5.82,1111122 
SCCF RECON,ioos:station:SCCF:53:1,2011-10-07T09:00:00Z,26.6493,-81.8810,2.2,6.06,1111122 
SCCF RECON,ioos:station:SCCF:53:1,2011-10-07T10:00:00Z,26.6493,-81.8810,2.166,5.76,1111122 
SCCF RECON,ioos:station:SCCF:53:1,2011-10-07T11:00:00Z,26.6493,-81.8810,2.158,6.02,1111122 
SCCF RECON,ioos:station:SCCF:53:1,2011-10-07T12:00:00Z,26.6493,-81.8810,2.17,6.0,1111122 
SCCF RECON,ioos:station:SCCF:53:1,2011-10-07T13:00:00Z,26.6493,-81.8810,2.22,5.95,1111122 
SCCF RECON,ioos:station:SCCF:53:1,2011-10-07T14:00:00Z,26.6493,-81.8810,2.281,6.09,1111122 
SCCF RECON,ioos:station:SCCF:53:1,2011-10-07T15:00:00Z,26.6493,-81.8810,2.335,6.1,1111122 
SCCF RECON,ioos:station:SCCF:53:1,2011-10-07T16:00:00Z,26.6493,-81.8810,2.375,6.12,1111122 
SCCF RECON,ioos:station:SCCF:53:1,2011-10-07T17:00:00Z,26.6493,-81.8810,2.398,5.94,1111122 
SCCF RECON,ioos:station:SCCF:53:1,2011-10-07T18:00:00Z,26.6493,-81.8810,2.382,6.28,1111122 
SCCF RECON,ioos:station:SCCF:53:1,2011-10-07T19:00:00Z,26.6493,-81.8810,2.332,5.7,1111122 
SCCF RECON,ioos:station:SCCF:53:1,2011-10-07T20:00:00Z,26.6493,-81.8810,2.272,5.95,1111122 
SCCF RECON,ioos:station:SCCF:53:1,2011-10-07T21:00:00Z,26.6493,-81.8810,2.22,6.13,1111122 
SCCF RECON,ioos:station:SCCF:53:1,2011-10-07T22:00:00Z,26.6493,-81.8810,2.17,6.2,1111122 
SCCF RECON,ioos:station:SCCF:53:1,2011-10-07T23:00:00Z,26.6493,-81.8810,2.134,6.36,1111122 
SCCF RECON,ioos:station:SCCF:53:1,2011-10-08T00:00:00Z,26.6493,-81.8810,2.113,6.36,1111122 
SCCF RECON,ioos:station:SCCF:53:1,2011-10-08T01:00:00Z,26.6493,-81.8810,2.124,6.34,1111122 
SCCF RECON,ioos:station:SCCF:53:1,2011-10-08T02:00:00Z,26.6493,-81.8810,2.13,6.42,1111122 
SCCF RECON,ioos:station:SCCF:53:1,2011-10-08T03:00:00Z,26.6493,-81.8810,2.178,6.45,1111122 
SCCF RECON,ioos:station:SCCF:53:1,2011-10-08T04:00:00Z,26.6493,-81.8810,2.23,6.45,1111122 
SCCF RECON,ioos:station:SCCF:53:1,2011-10-08T05:00:00Z,26.6493,-81.8810,2.25,6.07,1111122 
SCCF RECON,ioos:station:SCCF:53:1,2011-10-08T06:00:00Z,26.6493,-81.8810,2.275,6.05,1111122 
SCCF RECON,ioos:station:SCCF:53:1,2011-10-08T07:00:00Z,26.6493,-81.8810,2.284,6.01,1111122 
SCCF RECON,ioos:station:SCCF:53:1,2011-10-08T08:00:00Z,26.6493,-81.8810,2.248,5.91,1111122 
SCCF RECON,ioos:station:SCCF:53:1,2011-10-08T09:00:00Z,26.6493,-81.8810,2.181,6.4,1111122 
SCCF RECON,ioos:station:SCCF:53:1,2011-10-08T10:00:00Z,26.6493,-81.8810,2.14,6.46,1111122 
SCCF RECON,ioos:station:SCCF:53:1,2011-10-08T11:00:00Z,26.6493,-81.8810,2.103,6.45,1111122 
SCCF RECON,ioos:station:SCCF:53:1,2011-10-08T12:00:00Z,26.6493,-81.8810,2.082,6.45,1111122 
SCCF RECON,ioos:station:SCCF:53:1,2011-10-08T13:00:00Z,26.6493,-81.8810,2.13,6.33,1111122 
SCCF RECON,ioos:station:SCCF:53:1,2011-10-08T14:00:00Z,26.6493,-81.8810,2.182,6.27,1111122 
SCCF RECON,ioos:station:SCCF:53:1,2011-10-08T15:00:00Z,26.6493,-81.8810,2.221,6.21,1111122 
SCCF RECON,ioos:station:SCCF:53:1,2011-10-08T16:00:00Z,26.6493,-81.8810,2.27,6.16,1111122 
SCCF RECON,ioos:station:SCCF:53:1,2011-10-08T17:00:00Z,26.6493,-81.8810,2.301,6.2,1111122 
SCCF RECON,ioos:station:SCCF:53:1,2011-10-08T18:00:00Z,26.6493,-81.8810,2.346,5.9,1111122 
SCCF RECON,ioos:station:SCCF:53:1,2011-10-08T19:00:00Z,26.6493,-81.8810,2.34,5.93,1111122 
SCCF RECON,ioos:station:SCCF:53:1,2011-10-08T20:00:00Z,26.6493,-81.8810,2.306,6.09,1111122 
SCCF RECON,ioos:station:SCCF:53:1,2011-10-08T21:00:00Z,26.6493,-81.8810,2.247,6.68,1111122 
SCCF RECON,ioos:station:SCCF:53:1,2011-10-08T22:00:00Z,26.6493,-81.8810,2.201,6.69,1111122 
SCCF RECON,ioos:station:SCCF:53:1,2011-10-08T23:00:00Z,26.6493,-81.8810,2.159,6.73,1111122 
SCCF RECON,ioos:station:SCCF:53:1,2011-10-09T00:00:00Z,26.6493,-81.8810,2.13,6.74,1111122 
SCCF RECON,ioos:station:SCCF:53:1,2011-10-09T01:00:00Z,26.6493,-81.8810,2.128,6.75,1111122 
SCCF RECON,ioos:station:SCCF:53:1,2011-10-09T02:00:00Z,26.6493,-81.8810,2.141,6.7,1111122 
SCCF RECON,ioos:station:SCCF:53:1,2011-10-09T03:00:00Z,26.6493,-81.8810,2.188,6.58,1111122 
SCCF RECON,ioos:station:SCCF:53:1,2011-10-09T04:00:00Z,26.6493,-81.8810,2.23,6.53,1111122 
SCCF RECON,ioos:station:SCCF:53:1,2011-10-09T05:00:00Z,26.6493,-81.8810,2.262,6.62,1111122 
SCCF RECON,ioos:station:SCCF:53:1,2011-10-09T06:00:00Z,26.6493,-81.8810,2.3,6.65,1111122 
SCCF RECON,ioos:station:SCCF:53:1,2011-10-09T07:00:00Z,26.6493,-81.8810,2.305,6.66,1111122 
SCCF RECON,ioos:station:SCCF:53:1,2011-10-09T08:00:00Z,26.6493,-81.8810,2.3,6.74,1111122 
SCCF RECON,ioos:station:SCCF:53:1,2011-10-09T09:00:00Z,26.6493,-81.8810,2.27,6.48,1111122 
SCCF RECON,ioos:station:SCCF:53:1,2011-10-09T10:00:00Z,26.6493,-81.8810,2.221,6.41,1111122 
SCCF RECON,ioos:station:SCCF:53:1,2011-10-09T11:00:00Z,26.6493,-81.8810,2.17,6.15,1111122 
SCCF RECON,ioos:station:SCCF:53:1,2011-10-09T12:00:00Z,26.6493,-81.8810,2.139,6.33,1111122 
SCCF RECON,ioos:station:SCCF:53:1,2011-10-09T13:00:00Z,26.6493,-81.8810,2.101,6.29,1111122 
SCCF RECON,ioos:station:SCCF:53:1,2011-10-09T14:00:00Z,26.6493,-81.8810,2.131,6.27,1111122 
SCCF RECON,ioos:station:SCCF:53:1,2011-10-09T15:00:00Z,26.6493,-81.8810,2.21,6.22,1111122 
SCCF RECON,ioos:station:SCCF:53:1,2011-10-09T16:00:00Z,26.6493,-81.8810,2.265,6.34,1111122 
SCCF RECON,ioos:station:SCCF:53:1,2011-10-09T17:00:00Z,26.6493,-81.8810,2.331,6.49,1111122 
SCCF RECON,ioos:station:SCCF:53:1,2011-10-09T18:00:00Z,26.6493,-81.8810,2.39,6.49,1111122 
SCCF RECON,ioos:station:SCCF:53:1,2011-10-09T19:00:00Z,26.6493,-81.8810,2.409,6.49,1111122 
SCCF RECON,ioos:station:SCCF:53:1,2011-10-09T20:00:00Z,26.6493,-81.8810,2.391,6.39,1111122 
SCCF RECON,ioos:station:SCCF:53:1,2011-10-09T21:00:00Z,26.6493,-81.8810,2.349,6.38,1111122 
SCCF RECON,ioos:station:SCCF:53:1,2011-10-09T22:00:00Z,26.6493,-81.8810,2.303,6.49,1111122 
SCCF RECON,ioos:station:SCCF:53:1,2011-10-09T23:00:00Z,26.6493,-81.8810,2.26,6.54,1111122 
SCCF RECON,ioos:station:SCCF:53:1,2011-10-10T00:00:00Z,26.6493,-81.8810,2.211,6.62,1111122 
SCCF RECON,ioos:station:SCCF:53:1,2011-10-10T01:00:00Z,26.6493,-81.8810,2.184,6.53,1111122 
SCCF RECON,ioos:station:SCCF:53:1,2011-10-10T02:00:00Z,26.6493,-81.8810,2.19,6.58,1111122 
SCCF RECON,ioos:station:SCCF:53:1,2011-10-10T03:00:00Z,26.6493,-81.8810,2.25,6.56,1111122 
SCCF RECON,ioos:station:SCCF:53:1,2011-10-10T04:00:00Z,26.6493,-81.8810,2.31,6.51,1111122 
SCCF RECON,ioos:station:SCCF:53:1,2011-10-10T05:00:00Z,26.6493,-81.8810,2.372,6.68,1111122 
SCCF RECON,ioos:station:SCCF:53:1,2011-10-10T06:00:00Z,26.6493,-81.8810,2.439,6.62,1111122 
SCCF RECON,ioos:station:SCCF:53:1,2011-10-10T07:00:00Z,26.6493,-81.8810,2.472,6.55,1111122 
SCCF RECON,ioos:station:SCCF:53:1,2011-10-10T08:00:00Z,26.6493,-81.8810,2.48,6.46,1111122 
SCCF RECON,ioos:station:SCCF:53:1,2011-10-10T09:00:00Z,26.6493,-81.8810,2.43,6.62,1111122 
SCCF RECON,ioos:station:SCCF:53:1,2011-10-10T10:00:00Z,26.6493,-81.8810,2.38,6.67,1111122 
SCCF RECON,ioos:station:SCCF:53:1,2011-10-10T11:00:00Z,26.6493,-81.8810,2.33,6.52,1111122 
SCCF RECON,ioos:station:SCCF:53:1,2011-10-10T12:00:00Z,26.6493,-81.8810,2.28,6.41,1111122 
SCCF RECON,ioos:station:SCCF:53:1,2011-10-10T13:00:00Z,26.6493,-81.8810,2.233,6.2,1111122 
SCCF RECON,ioos:station:SCCF:53:1,2011-10-10T14:00:00Z,26.6493,-81.8810,2.221,6.22,1111122 
SCCF RECON,ioos:station:SCCF:53:1,2011-10-10T15:00:00Z,26.6493,-81.8810,2.291,6.1,1111122 
SCCF RECON,ioos:station:SCCF:53:1,2011-10-10T16:00:00Z,26.6493,-81.8810,2.356,6.26,1111122 
SCCF RECON,ioos:station:SCCF:53:1,2011-10-10T17:00:00Z,26.6493,-81.8810,2.41,6.67,1111122 
SCCF RECON,ioos:station:SCCF:53:1,2011-10-10T18:00:00Z,26.6493,-81.8810,2.48,6.17,1111122 
SCCF RECON,ioos:station:SCCF:53:1,2011-10-10T19:00:00Z,26.6493,-81.8810,2.523,6.33,1111122 
SCCF RECON,ioos:station:SCCF:53:1,2011-10-10T20:00:00Z,26.6493,-81.8810,2.55,6.4,1111122 
SCCF RECON,ioos:station:SCCF:53:1,2011-10-10T21:00:00Z,26.6493,-81.8810,2.55,6.4,1111122 
SCCF RECON,ioos:station:SCCF:53:1,2011-10-10T22:00:00Z,26.6493,-81.8810,2.502,6.74,1111122 
SCCF RECON,ioos:station:SCCF:53:1,2011-10-10T23:00:00Z,26.6493,-81.8810,2.44,6.68,1111122 
SCCF RECON,ioos:station:SCCF:53:1,2011-10-11T00:00:00Z,26.6493,-81.8810,2.39,6.49,1111122 
SCCF RECON,ioos:station:SCCF:53:1,2011-10-11T01:00:00Z,26.6493,-81.8810,2.34,6.32,1111122 
SCCF RECON,ioos:station:SCCF:53:1,2011-10-11T02:00:00Z,26.6493,-81.8810,2.32,6.33,1111122 
SCCF RECON,ioos:station:SCCF:53:1,2011-10-11T03:00:00Z,26.6493,-81.8810,2.37,6.13,1111122 
SCCF RECON,ioos:station:SCCF:53:1,2011-10-11T04:00:00Z,26.6493,-81.8810,2.44,6.09,1111122 
SCCF RECON,ioos:station:SCCF:53:1,2011-10-11T05:00:00Z,26.6493,-81.8810,2.49,6.15,1111122 
SCCF RECON,ioos:station:SCCF:53:1,2011-10-11T06:00:00Z,26.6493,-81.8810,2.55,6.07,1111122 
SCCF RECON,ioos:station:SCCF:53:1,2011-10-11T07:00:00Z,26.6493,-81.8810,2.582,5.87,1111122 
SCCF RECON,ioos:station:SCCF:53:1,2011-10-11T08:00:00Z,26.6493,-81.8810,2.583,5.96,1111122 
SCCF RECON,ioos:station:SCCF:53:1,2011-10-11T09:00:00Z,26.6493,-81.8810,2.538,6.08,1111122 
SCCF RECON,ioos:station:SCCF:53:1,2011-10-11T10:00:00Z,26.6493,-81.8810,2.48,6.37,1111122 
SCCF RECON,ioos:station:SCCF:53:1,2011-10-11T11:00:00Z,26.6493,-81.8810,2.429,6.19,1111122 
SCCF RECON,ioos:station:SCCF:53:1,2011-10-11T12:00:00Z,26.6493,-81.8810,2.37,6.12,1111122 
SCCF RECON,ioos:station:SCCF:53:1,2011-10-11T13:00:00Z,26.6493,-81.8810,2.32,6.03,1111122 
SCCF RECON,ioos:station:SCCF:53:1,2011-10-11T14:00:00Z,26.6493,-81.8810,2.28,5.56,1111122 
SCCF RECON,ioos:station:SCCF:53:1,2011-10-11T15:00:00Z,26.6493,-81.8810,2.29,5.93,1111122 
SCCF RECON,ioos:station:SCCF:53:1,2011-10-11T16:00:00Z,26.6493,-81.8810,2.363,6.06,1111122 
SCCF RECON,ioos:station:SCCF:53:1,2011-10-11T17:00:00Z,26.6493,-81.8810,2.425,6.33,1111122 
SCCF RECON,ioos:station:SCCF:53:1,2011-10-11T18:00:00Z,26.6493,-81.8810,2.48,5.77,1111122 
SCCF RECON,ioos:station:SCCF:53:1,2011-10-11T19:00:00Z,26.6493,-81.8810,2.54,5.68,1111122 
SCCF RECON,ioos:station:SCCF:53:1,2011-10-11T20:00:00Z,26.6493,-81.8810,2.578,5.83,1111122 